Hatteras, NC

7:59 PM EDT on May 29, 2017 (GMT -0400)
Mitchell

Weather History for KHSE - June, 2013

Change the Weather History Date:

Saturday, June 22, 2013

  Actual Average Record
Temperature  
Mean Temperature 80 °F 77 °F  
Max Temperature 86 °F 82 °F 92 °F (1994)
Min Temperature 74 °F 71 °F 53 °F (1992)
Degree Days  
Heating Degree Days 0 0  
Month to date heating degree days 0 0  
Since 1 June heating degree days 0 0  
Since 1 July heating degree days 2420 2584  
Cooling Degree Days 15 12  
Month to date cooling degree days 277 208  
Year to date cooling degree days 439 351  
Since 1 June cooling degree days 277 208  
Growing Degree Days 30 (Base 50)    
Moisture  
Dew Point 71 °F    
Average Humidity 73    
Maximum Humidity 85    
Minimum Humidity 61    
Precipitation  
Precipitation 0.01 in 0.14 in 2.46 in (1995)
Month to date precipitation 3.83 2.87  
Year to date precipitation 23.02 24.11  
Snow  
Snow 0.00 in - - ()
Month to date snowfall 0.0  
Since 1 July snowfall 0.0  
Snow Depth 0.00 in    
Sea Level Pressure  
Sea Level Pressure 30.20 in    
Wind  
Wind Speed 9 mph (SSE)    
Max Wind Speed 16 mph    
Max Gust Speed 22 mph    
Visibility 10 miles    
Events Rain    
T = Trace of Precipitation, MM = Missing Value Source: NWS Daily Summary

Daily Weather History Graph

Daily Weather History Graph

Search for Another Location

Airport or City:

Trip Planner

Search our weather history database for the weather conditions in past years. The results will help you decide how hot, cold, wet, or windy it might be!

Date:

Astronomy

Jun. 22, 2013 Rise Set
Actual Time 5:48 AM EDT 8:20 PM EDT
Civil Twilight 5:18 AM EDT 8:50 PM EDT
Nautical Twilight 4:41 AM EDT 9:27 PM EDT
Astronomical Twilight 4:00 AM EDT 10:08 PM EDT
Moon 7:35 PM EDT (6/22) 4:56 AM EDT (6/22)
Length of Visible Light 15h 31m
Length of Day
14h 32m
Waxing Gibbous, 99% of the Moon is Illuminated
Jun 22
Waxing Gibbous
Jun 23
Full
Jun 30
Last Quarter
Jul 8
New
Jul 15
First Quarter

Hourly Weather History & Observations

Time (EDT) Temp. Heat Index Dew Point Humidity Pressure Visibility Wind Dir Wind Speed Gust Speed Precip Events Conditions
12:51 AM 77.0 °F - 72.0 °F 84% 30.19 in 10.0 mi ESE 11.5 mph - N/A   Partly Cloudy
1:51 AM 78.1 °F - 71.1 °F 79% 30.18 in 10.0 mi SSE 6.9 mph - N/A   Clear
2:51 AM 78.1 °F - 71.1 °F 79% 30.18 in 10.0 mi South 8.1 mph - N/A   Clear
3:51 AM 78.1 °F - 72.0 °F 81% 30.18 in 10.0 mi South 8.1 mph - N/A   Partly Cloudy
4:51 AM 78.1 °F - 72.0 °F 81% 30.17 in 10.0 mi South 5.8 mph - N/A   Overcast
5:51 AM 78.1 °F - 71.1 °F 79% 30.18 in 10.0 mi South 4.6 mph - N/A   Mostly Cloudy
6:51 AM 78.1 °F - 71.1 °F 79% 30.19 in 9.0 mi South 11.5 mph - 0.00 in Rain Light Rain
7:51 AM 73.9 °F - 71.1 °F 91% 30.21 in 10.0 mi Variable 3.5 mph - 0.00 in   Clear
8:51 AM 78.1 °F - 69.1 °F 74% 30.23 in 10.0 mi NNW 3.5 mph - N/A   Scattered Clouds
9:51 AM 79.0 °F - 69.1 °F 72% 30.23 in 10.0 mi Variable 3.5 mph - N/A   Mostly Cloudy
10:51 AM 82.0 °F 86.3 °F 71.1 °F 69% 30.22 in 10.0 mi East 6.9 mph - N/A   Mostly Cloudy
11:51 AM 82.9 °F 88.0 °F 72.0 °F 69% 30.22 in 10.0 mi ESE 9.2 mph - N/A   Mostly Cloudy
12:51 PM 86.0 °F 92.2 °F 72.0 °F 63% 30.23 in 10.0 mi ESE 9.2 mph - N/A   Scattered Clouds
1:51 PM 84.0 °F 89.0 °F 71.1 °F 65% 30.23 in 10.0 mi SE 8.1 mph - N/A   Partly Cloudy
2:51 PM 82.9 °F 87.5 °F 71.1 °F 67% 30.22 in 10.0 mi SE 8.1 mph - N/A   Clear
3:51 PM 82.0 °F 86.7 °F 72.0 °F 71% 30.21 in 10.0 mi ESE 10.4 mph - N/A   Clear
4:51 PM 82.0 °F 86.7 °F 72.0 °F 71% 30.21 in 10.0 mi SE 8.1 mph - N/A   Scattered Clouds
5:51 PM 80.1 °F 82.7 °F 68.0 °F 67% 30.21 in 10.0 mi SSE 11.5 mph - 0.00 in   Overcast
6:51 PM 78.1 °F - 71.1 °F 79% 30.20 in 10.0 mi South 13.8 mph - 0.00 in   Mostly Cloudy
7:51 PM 77.0 °F - 72.0 °F 84% 30.19 in 10.0 mi SSE 10.4 mph - 0.01 in   Mostly Cloudy
8:51 PM 77.0 °F - 72.0 °F 84% 30.19 in 10.0 mi SSE 8.1 mph - 0.00 in Rain Light Rain
9:51 PM 77.0 °F - 72.0 °F 84% 30.19 in 10.0 mi SSE 8.1 mph - 0.00 in   Partly Cloudy
10:51 PM 78.1 °F - 72.0 °F 81% 30.19 in 10.0 mi SSE 9.2 mph - N/A   Clear
11:51 PM 79.0 °F - 73.0 °F 82% 30.19 in 10.0 mi South 12.7 mph - N/A   Clear